^^
Datos históricos de la estación: Murcia-Puente Tocinos
Diario Informe para Diciembre 12, 2019 Unidades:  Métrico    Inglés   Ambas
Diario Semanal Mensual Anual Configurable
  Máximo: Mínimo: Media:
Temperatura: 15.9 °C 10.2 °C 13 °C
Punto de rocio: 5.3 °C 1.7 °C 3.1 °C
Humedad: 63% 39% 52%
Velocidad viento: 22.5km/h 0.0km/h 9.5km/h
Racha viento: 40.2km/h - -
Viento- - WSW
Presión: 1022.9 hPa 1012.3 hPa -
Precipitación: 0.0 mm    
Historical Graphs
 
 
Tabla de datos para Diciembre 12, 2019
Hora Temperatura Punto de rocio Presión Viento Velocidad viento Racha viento Humedad Intensidad lluvia(por hora) Nubes
00:00 13.1 °C 3.4 °C 1022.8 hPa WNW 22.5 km/h 35.4 km/h 52% 0.0 mm CLR
00:05 12.9 °C 3.3 °C 1022.8 hPa WNW 19.3 km/h 33.8 km/h 52% 0.0 mm CLR
00:10 12.9 °C 3.3 °C 1022.9 hPa WNW 19.3 km/h 35.4 km/h 52% 0.0 mm CLR
00:15 12.9 °C 3.6 °C 1022.9 hPa WNW 19.3 km/h 25.7 km/h 53% 0.0 mm CLR
00:20 12.8 °C 3.4 °C 1022.9 hPa WNW 19.3 km/h 27.4 km/h 53% 0.0 mm CLR
00:25 12.7 °C 3.3 °C 1022.7 hPa WNW 16.1 km/h 30.6 km/h 53% 0.0 mm CLR
00:30 12.7 °C 3.3 °C 1022.7 hPa WNW 16.1 km/h 25.7 km/h 53% 0.0 mm CLR
00:35 12.6 °C 3.3 °C 1022.7 hPa WNW 16.1 km/h 27.4 km/h 53% 0.0 mm CLR
00:40 12.4 °C 3.1 °C 1022.8 hPa WNW 16.1 km/h 24.1 km/h 53% 0.0 mm CLR
00:45 12.4 °C 3.3 °C 1022.8 hPa WNW 14.5 km/h 22.5 km/h 54% 0.0 mm CLR
00:50 12.3 °C 3.2 °C 1022.8 hPa WNW 14.5 km/h 24.1 km/h 54% 0.0 mm CLR
00:55 12.2 °C 3.2 °C 1022.6 hPa WNW 14.5 km/h 24.1 km/h 54% 0.0 mm CLR
01:00 12.1 °C 3.1 °C 1022.6 hPa WNW 14.5 km/h 27.4 km/h 54% 0.0 mm CLR
01:05 12.1 °C 3.1 °C 1022.6 hPa WNW 16.1 km/h 27.4 km/h 54% 0.0 mm CLR
01:10 12.1 °C 3.1 °C 1022.1 hPa WNW 16.1 km/h 30.6 km/h 54% 0.0 mm CLR
01:15 12.2 °C 3.2 °C 1022.1 hPa WNW 19.3 km/h 25.7 km/h 54% 0.0 mm CLR
01:20 12.2 °C 3.2 °C 1022.1 hPa WNW 19.3 km/h 24.1 km/h 54% 0.0 mm CLR
01:25 12.1 °C 3.1 °C 1022.3 hPa WNW 14.5 km/h 22.5 km/h 54% 0.0 mm CLR
01:30 12.0 °C 2.9 °C 1022.3 hPa WNW 14.5 km/h 24.1 km/h 54% 0.0 mm CLR
01:35 11.9 °C 2.9 °C 1022.3 hPa WNW 12.9 km/h 19.3 km/h 54% 0.0 mm CLR
01:40 11.9 °C 3.1 °C 1022.2 hPa West 12.9 km/h 20.9 km/h 55% 0.0 mm CLR
01:45 11.7 °C 3.0 °C 1022.2 hPa West 11.3 km/h 14.5 km/h 55% 0.0 mm CLR
01:50 11.6 °C 2.9 °C 1022.2 hPa WSW 11.3 km/h 11.3 km/h 55% 0.0 mm CLR
01:55 11.6 °C 2.8 °C 1022.1 hPa WSW 8.0 km/h 9.7 km/h 55% 0.0 mm CLR
02:00 11.6 °C 3.1 °C 1022.1 hPa West 8.0 km/h 8.0 km/h 56% 0.0 mm CLR
02:05 11.6 °C 3.1 °C 1022.1 hPa WNW 3.2 km/h 8.0 km/h 56% 0.0 mm CLR
02:10 11.5 °C 3.0 °C 1022.0 hPa NW 3.2 km/h 8.0 km/h 56% 0.0 mm CLR
02:15 11.5 °C 2.8 °C 1022.0 hPa NW 3.2 km/h 9.7 km/h 55% 0.0 mm CLR
02:20 11.4 °C 2.7 °C 1022.0 hPa NW 3.2 km/h 9.7 km/h 55% 0.0 mm CLR
02:25 11.6 °C 2.6 °C 1021.8 hPa NW 8.0 km/h 22.5 km/h 54% 0.0 mm CLR
02:30 12.2 °C 2.4 °C 1021.8 hPa WNW 8.0 km/h 40.2 km/h 51% 0.0 mm CLR
02:35 12.7 °C 2.6 °C 1021.8 hPa WNW 14.5 km/h 40.2 km/h 50% 0.0 mm CLR
02:40 12.6 °C 2.2 °C 1021.7 hPa WNW 14.5 km/h 19.3 km/h 49% 0.0 mm CLR
02:45 12.6 °C 2.2 °C 1021.7 hPa West 9.7 km/h 24.1 km/h 49% 0.0 mm CLR
02:50 12.6 °C 2.2 °C 1021.7 hPa West 9.7 km/h 16.1 km/h 49% 0.0 mm CLR
02:55 12.7 °C 1.9 °C 1021.9 hPa WSW 9.7 km/h 24.1 km/h 48% 0.0 mm CLR
03:00 12.9 °C 1.8 °C 1021.9 hPa WSW 9.7 km/h 20.9 km/h 47% 0.0 mm CLR
03:05 12.8 °C 2.1 °C 1021.9 hPa SW 11.3 km/h 19.3 km/h 48% 0.0 mm CLR
03:10 12.7 °C 1.9 °C 1021.9 hPa SW 11.3 km/h 19.3 km/h 48% 0.0 mm CLR
03:15 12.5 °C 1.8 °C 1021.9 hPa WSW 8.0 km/h 25.7 km/h 48% 0.0 mm CLR
03:20 12.7 °C 1.9 °C 1021.9 hPa WSW 8.0 km/h 30.6 km/h 48% 0.0 mm CLR
03:25 12.8 °C 2.1 °C 1021.6 hPa WSW 11.3 km/h 22.5 km/h 48% 0.0 mm CLR
03:30 12.6 °C 2.1 °C 1021.6 hPa SW 11.3 km/h 12.9 km/h 49% 0.0 mm CLR
03:35 12.2 °C 2.1 °C 1021.6 hPa South 9.7 km/h 12.9 km/h 50% 0.0 mm CLR
03:40 12.1 °C 2.3 °C 1021.7 hPa South 9.7 km/h 9.7 km/h 51% 0.0 mm CLR
03:45 11.8 °C 2.3 °C 1021.7 hPa SW 4.8 km/h 9.7 km/h 52% 0.0 mm CLR
03:50 11.7 °C 2.2 °C 1021.7 hPa WSW 4.8 km/h 11.3 km/h 52% 0.0 mm CLR
03:55 11.7 °C 2.2 °C 1021.7 hPa WSW 3.2 km/h 9.7 km/h 52% 0.0 mm CLR
04:00 11.7 °C 2.2 °C 1021.7 hPa West 3.2 km/h 9.7 km/h 52% 0.0 mm CLR
04:05 11.6 °C 2.1 °C 1021.7 hPa WNW 4.8 km/h 8.0 km/h 52% 0.0 mm CLR
04:10 11.7 °C 2.2 °C 1021.8 hPa West 4.8 km/h 25.7 km/h 52% 0.0 mm CLR
04:15 11.8 °C 2.3 °C 1021.8 hPa West 9.7 km/h 16.1 km/h 52% 0.0 mm CLR
04:20 11.8 °C 2.3 °C 1021.8 hPa West 9.7 km/h 35.4 km/h 52% 0.0 mm CLR
04:25 12.3 °C 2.2 °C 1021.8 hPa West 14.5 km/h 35.4 km/h 50% 0.0 mm CLR
04:30 12.3 °C 2.2 °C 1021.8 hPa West 14.5 km/h 30.6 km/h 50% 0.0 mm CLR
04:35 12.2 °C 2.3 °C 1021.8 hPa West 16.1 km/h 24.1 km/h 51% 0.0 mm CLR
04:40 12.1 °C 2.3 °C 1021.9 hPa WSW 16.1 km/h 12.9 km/h 51% 0.0 mm CLR
04:45 11.9 °C 2.1 °C 1021.9 hPa WSW 8.0 km/h 9.7 km/h 51% 0.0 mm CLR
04:50 11.9 °C 2.1 °C 1021.9 hPa West 8.0 km/h 16.1 km/h 51% 0.0 mm CLR
04:55 12.0 °C 2.2 °C 1021.5 hPa SW 8.0 km/h 14.5 km/h 51% 0.0 mm CLR
05:00 12.0 °C 2.2 °C 1021.5 hPa SW 8.0 km/h 11.3 km/h 51% 0.0 mm CLR
05:05 12.1 °C 2.3 °C 1021.5 hPa WSW 8.0 km/h 16.1 km/h 51% 0.0 mm CLR
05:10 12.1 °C 2.3 °C 1021.2 hPa WSW 8.0 km/h 11.3 km/h 51% 0.0 mm CLR
05:15 12.0 °C 2.2 °C 1021.2 hPa WSW 8.0 km/h 11.3 km/h 51% 0.0 mm CLR
05:20 11.9 °C 2.1 °C 1021.2 hPa WSW 8.0 km/h 11.3 km/h 51% 0.0 mm CLR
05:25 11.9 °C 2.1 °C 1020.9 hPa SW 4.8 km/h 14.5 km/h 51% 0.0 mm CLR
05:30 11.9 °C 2.3 °C 1020.9 hPa SW 4.8 km/h 11.3 km/h 52% 0.0 mm CLR
05:35 11.6 °C 2.3 °C 1020.9 hPa SSW 6.9 km/h 5.6 km/h 53% 0.0 mm CLR
05:40 11.3 °C 2.3 °C 1021.1 hPa South 8.0 km/h 8.0 km/h 54% 0.0 mm CLR
05:45 11.1 °C 2.1 °C 1021.1 hPa SSW 4.8 km/h 9.7 km/h 54% 0.0 mm CLR
05:50 11.0 °C 2.3 °C 1021.1 hPa SSW 4.8 km/h 9.7 km/h 55% 0.0 mm CLR
05:55 11.0 °C 2.3 °C 1021.3 hPa SW 4.8 km/h 9.7 km/h 55% 0.0 mm CLR
06:00 11.1 °C 2.4 °C 1021.3 hPa SW 4.8 km/h 14.5 km/h 55% 0.0 mm CLR
06:05 11.2 °C 2.2 °C 1021.3 hPa WSW 8.0 km/h 12.9 km/h 54% 0.0 mm CLR
06:10 11.3 °C 2.3 °C 1021.1 hPa WSW 8.0 km/h 12.9 km/h 54% 0.0 mm CLR
06:15 11.4 °C 2.4 °C 1021.1 hPa West 8.0 km/h 14.5 km/h 54% 0.0 mm CLR
06:20 11.6 °C 2.3 °C 1021.1 hPa West 8.0 km/h 22.5 km/h 53% 0.0 mm CLR
06:25 11.7 °C 2.2 °C 1020.9 hPa West 9.7 km/h 16.1 km/h 52% 0.0 mm CLR
06:30 11.7 °C 2.2 °C 1020.9 hPa WSW 9.7 km/h 19.3 km/h 52% 0.0 mm CLR
06:35 11.7 °C 2.4 °C 1020.9 hPa SW 8.0 km/h 11.3 km/h 53% 0.0 mm CLR
06:40 11.4 °C 2.4 °C 1020.6 hPa South 8.0 km/h 11.3 km/h 54% 0.0 mm CLR
06:45 10.8 °C 2.3 °C 1020.6 hPa South 8.0 km/h 12.9 km/h 56% 0.0 mm CLR
06:50 10.4 °C 2.2 °C 1020.6 hPa South 8.0 km/h 12.9 km/h 57% 0.0 mm CLR
06:55 10.3 °C 2.4 °C 1020.8 hPa SSW 8.0 km/h 11.3 km/h 58% 0.0 mm CLR
07:00 10.3 °C 2.4 °C 1020.8 hPa SSW 8.0 km/h 11.3 km/h 58% 0.0 mm CLR
07:05 10.3 °C 2.4 °C 1020.8 hPa SSW 8.0 km/h 11.3 km/h 58% 0.0 mm CLR
07:10 10.3 °C 2.4 °C 1020.5 hPa SSW 8.0 km/h 9.7 km/h 58% 0.0 mm CLR
07:15 10.3 °C 2.4 °C 1020.5 hPa SSW 8.0 km/h 11.3 km/h 58% 0.0 mm CLR
07:20 10.3 °C 2.4 °C 1020.5 hPa SW 8.0 km/h 9.7 km/h 58% 0.0 mm CLR
07:25 10.3 °C 2.4 °C 1020.4 hPa SW 8.0 km/h 8.0 km/h 58% 0.0 mm CLR
07:30 10.3 °C 2.4 °C 1020.4 hPa SW 8.0 km/h 9.7 km/h 58% 0.0 mm CLR
07:35 10.3 °C 2.6 °C 1020.4 hPa South 5.8 km/h 11.1 km/h 59% 0.0 mm CLR
07:40 10.2 °C 2.6 °C 1020.5 hPa SW 4.8 km/h 11.3 km/h 59% 0.0 mm CLR
07:45 10.2 °C 2.6 °C 1020.5 hPa SW 8.0 km/h 11.3 km/h 59% 0.0 mm CLR
07:50 10.2 °C 2.6 °C 1020.5 hPa SSW 8.0 km/h 11.3 km/h 59% 0.0 mm CLR
07:55 10.2 °C 2.6 °C 1020.4 hPa SSW 8.0 km/h 12.9 km/h 59% 0.0 mm CLR
08:00 10.2 °C 2.6 °C 1020.4 hPa SSW 8.0 km/h 14.5 km/h 59% 0.0 mm CLR
08:05 10.2 °C 2.6 °C 1020.4 hPa SW 9.7 km/h 11.3 km/h 59% 0.0 mm CLR
08:10 10.2 °C 2.3 °C 1020.6 hPa SW 9.7 km/h 8.0 km/h 58% 0.0 mm CLR
08:15 10.3 °C 2.4 °C 1020.6 hPa SW 4.8 km/h 11.3 km/h 58% 0.0 mm CLR
08:20 10.3 °C 2.4 °C 1020.6 hPa SSW 4.8 km/h 9.7 km/h 58% 0.0 mm CLR
08:25 10.4 °C 2.5 °C 1020.7 hPa SSW 8.0 km/h 11.3 km/h 58% 0.0 mm CLR
08:30 10.4 °C 2.5 °C 1020.7 hPa South 8.0 km/h 9.7 km/h 58% 0.0 mm CLR
08:35 10.4 °C 2.5 °C 1020.7 hPa SSW 8.0 km/h 8.0 km/h 58% 0.0 mm CLR
08:40 10.4 °C 2.5 °C 1020.7 hPa SW 8.0 km/h 11.3 km/h 58% 0.0 mm CLR
08:45 10.4 °C 2.4 °C 1020.7 hPa SW 8.0 km/h 11.3 km/h 58% 0.0 mm CLR
08:50 10.4 °C 2.5 °C 1020.7 hPa WSW 8.0 km/h 11.3 km/h 58% 0.0 mm CLR
08:55 10.4 °C 2.7 °C 1020.9 hPa WSW 8.0 km/h 9.7 km/h 59% 0.0 mm CLR
09:00 10.3 °C 2.7 °C 1020.9 hPa WSW 8.0 km/h 11.3 km/h 59% 0.0 mm CLR
09:05 10.3 °C 2.7 °C 1020.9 hPa SW 8.0 km/h 12.9 km/h 59% 0.0 mm CLR
09:10 10.4 °C 2.6 °C 1021.0 hPa SW 8.0 km/h 12.9 km/h 58% 0.0 mm CLR
09:15 10.7 °C 2.5 °C 1021.0 hPa SW 8.0 km/h 14.5 km/h 57% 0.0 mm CLR
09:20 10.8 °C 2.6 °C 1021.0 hPa SSW 8.0 km/h 14.5 km/h 57% 0.0 mm CLR
09:25 10.9 °C 2.7 °C 1020.7 hPa SSW 8.0 km/h 11.3 km/h 57% 0.0 mm CLR
09:30 10.9 °C 2.7 °C 1020.7 hPa SSW 8.0 km/h 14.5 km/h 57% 0.0 mm CLR
09:35 10.9 °C 2.4 °C 1020.7 hPa SW 8.0 km/h 14.5 km/h 56% 0.0 mm CLR
09:40 10.9 °C 2.4 °C 1020.6 hPa SW 8.0 km/h 14.5 km/h 56% 0.0 mm CLR
09:45 11.0 °C 2.6 °C 1020.6 hPa SW 9.7 km/h 19.3 km/h 56% 0.0 mm CLR
09:50 11.0 °C 2.3 °C 1020.6 hPa SSW 8.7 km/h 18.5 km/h 55% 0.0 mm CLR
09:55 11.1 °C 2.6 °C 1020.8 hPa SW 11.3 km/h 16.1 km/h 56% 0.0 mm CLR
10:00 11.2 °C 2.5 °C 1020.8 hPa SW 11.3 km/h 19.3 km/h 55% 0.0 mm CLR
10:05 11.4 °C 2.2 °C 1020.8 hPa SW 9.7 km/h 19.3 km/h 53% 0.0 mm CLR
10:10 11.7 °C 2.2 °C 1020.7 hPa SW 9.7 km/h 14.5 km/h 52% 0.0 mm CLR
10:15 11.9 °C 2.3 °C 1020.7 hPa SSW 9.7 km/h 12.9 km/h 52% 0.0 mm CLR
10:20 12.1 °C 2.2 °C 1020.7 hPa SSW 9.7 km/h 12.9 km/h 51% 0.0 mm CLR
10:25 12.1 °C 2.3 °C 1020.8 hPa SSW 8.0 km/h 12.9 km/h 51% 0.0 mm CLR
10:30 12.2 °C 2.6 °C 1020.8 hPa SSW 8.0 km/h 11.3 km/h 52% 0.0 mm CLR
10:35 12.2 °C 2.6 °C 1020.8 hPa SSW 8.0 km/h 14.5 km/h 52% 0.0 mm CLR
10:40 12.2 °C 2.9 °C 1020.8 hPa South 8.0 km/h 11.3 km/h 53% 0.0 mm CLR
10:45 12.3 °C 2.7 °C 1020.8 hPa South 8.0 km/h 9.7 km/h 52% 0.0 mm CLR
10:50 12.3 °C 2.7 °C 1020.8 hPa South 8.0 km/h 8.0 km/h 52% 0.0 mm CLR
10:55 12.4 °C 2.6 °C 1020.9 hPa SSW 3.2 km/h 8.0 km/h 51% 0.0 mm CLR
11:00 12.6 °C 2.7 °C 1020.9 hPa SW 3.2 km/h 9.7 km/h 51% 0.0 mm CLR
11:05 12.7 °C 2.8 °C 1020.9 hPa SSW 4.8 km/h 11.3 km/h 51% 0.0 mm CLR
11:10 12.7 °C 2.8 °C 1020.9 hPa SSW 4.8 km/h 9.7 km/h 51% 0.0 mm CLR
11:15 12.8 °C 2.9 °C 1020.9 hPa SW 4.8 km/h 8.0 km/h 51% 0.0 mm CLR
11:20 12.9 °C 2.4 °C 1020.9 hPa SW 4.8 km/h 9.7 km/h 49% 0.0 mm CLR
11:25 13.2 °C 2.9 °C 1020.7 hPa SW 4.8 km/h 9.7 km/h 50% 0.0 mm CLR
11:30 13.3 °C 2.5 °C 1020.7 hPa SW 4.8 km/h 9.7 km/h 48% 0.0 mm CLR
11:35 13.3 °C 2.8 °C 1020.7 hPa SW 4.8 km/h 11.3 km/h 49% 0.0 mm CLR
11:40 13.4 °C 2.9 °C 1020.6 hPa SW 4.8 km/h 9.7 km/h 49% 0.0 mm CLR
11:45 13.4 °C 2.9 °C 1020.6 hPa SW 4.8 km/h 11.3 km/h 49% 0.0 mm CLR
11:50 13.5 °C 3.0 °C 1020.6 hPa WSW 4.8 km/h 11.3 km/h 49% 0.0 mm CLR
11:55 13.4 °C 2.9 °C 1020.2 hPa SW 8.0 km/h 14.5 km/h 49% 0.0 mm CLR
12:00 13.6 °C 3.1 °C 1020.2 hPa SW 8.0 km/h 11.3 km/h 49% 0.0 mm CLR
12:05 13.7 °C 3.2 °C 1020.2 hPa SW 8.0 km/h 12.9 km/h 49% 0.0 mm CLR
12:10 13.8 °C 3.3 °C 1020.1 hPa SSW 8.0 km/h 14.5 km/h 49% 0.0 mm CLR
12:15 13.9 °C 3.1 °C 1020.1 hPa SSW 9.7 km/h 14.5 km/h 48% 0.0 mm CLR
12:20 13.9 °C 3.1 °C 1020.1 hPa SSW 9.7 km/h 16.1 km/h 48% 0.0 mm CLR
12:25 13.9 °C 3.1 °C 1019.8 hPa SW 8.0 km/h 14.5 km/h 48% 0.0 mm CLR
12:30 13.9 °C 3.1 °C 1019.8 hPa SW 8.0 km/h 14.5 km/h 48% 0.0 mm CLR
12:35 13.9 °C 3.1 °C 1019.8 hPa South 8.0 km/h 12.9 km/h 48% 0.0 mm CLR
12:40 14.1 °C 2.9 °C 1019.2 hPa South 8.0 km/h 14.5 km/h 47% 0.0 mm CLR
12:45 14.2 °C 3.1 °C 1019.2 hPa South 8.0 km/h 11.3 km/h 47% 0.0 mm CLR
12:50 14.4 °C 3.2 °C 1019.2 hPa South 8.0 km/h 14.5 km/h 47% 0.0 mm CLR
12:55 14.7 °C 3.2 °C 1018.8 hPa South 8.0 km/h 20.9 km/h 46% 0.0 mm CLR
13:00 15.0 °C 2.5 °C 1018.8 hPa SW 8.0 km/h 25.7 km/h 43% 0.0 mm CLR
13:05 15.2 °C 2.3 °C 1018.8 hPa WSW 12.9 km/h 27.4 km/h 42% 0.0 mm CLR
13:10 15.3 °C 2.4 °C 1019.0 hPa WSW 12.9 km/h 20.9 km/h 42% 0.0 mm CLR
13:15 15.2 °C 2.3 °C 1019.0 hPa West 12.9 km/h 19.3 km/h 42% 0.0 mm CLR
13:20 15.2 °C 2.3 °C 1019.0 hPa West 12.9 km/h 22.5 km/h 42% 0.0 mm CLR
13:25 15.4 °C 2.2 °C 1018.4 hPa West 11.3 km/h 19.3 km/h 41% 0.0 mm CLR
13:30 15.6 °C 2.0 °C 1018.4 hPa West 11.3 km/h 24.1 km/h 40% 0.0 mm CLR
13:35 15.7 °C 1.7 °C 1018.4 hPa WNW 11.3 km/h 27.4 km/h 39% 0.0 mm CLR
13:40 15.7 °C 2.1 °C 1017.8 hPa WNW 11.3 km/h 27.4 km/h 40% 0.0 mm CLR
13:45 15.8 °C 2.2 °C 1017.8 hPa West 14.5 km/h 20.9 km/h 40% 0.0 mm CLR
13:50 15.9 °C 1.9 °C 1017.8 hPa West 14.5 km/h 24.1 km/h 39% 0.0 mm CLR
13:55 15.8 °C 1.8 °C 1017.4 hPa West 12.9 km/h 24.1 km/h 39% 0.0 mm CLR
14:00 15.8 °C 2.3 °C 1017.4 hPa West 12.9 km/h 20.9 km/h 40% 0.0 mm CLR
14:05 15.9 °C 1.9 °C 1017.4 hPa West 12.9 km/h 29.0 km/h 39% 0.0 mm CLR
14:10 15.9 °C 2.3 °C 1017.4 hPa West 12.9 km/h 35.4 km/h 40% 0.0 mm CLR
14:15 15.7 °C 2.1 °C 1017.4 hPa West 20.9 km/h 33.8 km/h 40% 0.0 mm CLR
14:20 15.7 °C 2.4 °C 1017.4 hPa West 20.9 km/h 29.0 km/h 41% 0.0 mm CLR
14:25 15.7 °C 2.4 °C 1017.1 hPa West 16.1 km/h 19.3 km/h 41% 0.0 mm CLR
14:30 15.7 °C 2.4 °C 1017.1 hPa West 16.1 km/h 25.7 km/h 41% 0.0 mm CLR
14:35 15.7 °C 2.8 °C 1017.1 hPa West 12.9 km/h 25.7 km/h 42% 0.0 mm CLR
14:40 15.7 °C 2.8 °C 1016.8 hPa West 12.9 km/h 33.8 km/h 42% 0.0 mm CLR
14:45 15.7 °C 3.2 °C 1016.8 hPa West 14.5 km/h 24.1 km/h 43% 0.0 mm CLR
14:50 15.7 °C 3.2 °C 1016.8 hPa West 14.5 km/h 29.0 km/h 43% 0.0 mm CLR
14:55 15.7 °C 2.8 °C 1016.5 hPa West 12.9 km/h 29.0 km/h 42% 0.0 mm CLR
15:00 15.7 °C 3.2 °C 1016.5 hPa West 12.9 km/h 30.6 km/h 43% 0.0 mm CLR
15:05 15.6 °C 3.1 °C 1016.5 hPa West 16.1 km/h 35.4 km/h 43% 0.0 mm CLR
15:10 15.5 °C 3.3 °C 1016.3 hPa West 16.1 km/h 38.6 km/h 44% 0.0 mm CLR
15:15 15.5 °C 3.3 °C 1016.3 hPa West 20.9 km/h 38.6 km/h 44% 0.0 mm CLR
15:20 15.4 °C 3.2 °C 1016.3 hPa West 20.9 km/h 37.0 km/h 44% 0.0 mm CLR
15:25 15.3 °C 3.1 °C 1016.1 hPa West 20.9 km/h 35.4 km/h 44% 0.0 mm CLR
15:30 15.2 °C 3.0 °C 1016.1 hPa West 20.9 km/h 40.2 km/h 44% 0.0 mm CLR
15:35 15.1 °C 3.2 °C 1016.1 hPa WNW 22.5 km/h 35.4 km/h 45% 0.0 mm CLR
15:40 15.1 °C 3.2 °C 1016.1 hPa WNW 22.5 km/h 35.4 km/h 45% 0.0 mm CLR
15:45 15.0 °C 3.4 °C 1016.1 hPa WNW 20.9 km/h 33.8 km/h 46% 0.0 mm CLR
15:50 14.9 °C 3.4 °C 1016.1 hPa WNW 20.9 km/h 37.0 km/h 46% 0.0 mm CLR
15:55 14.8 °C 3.3 °C 1015.9 hPa WNW 22.5 km/h 33.8 km/h 46% 0.0 mm CLR
16:00 14.8 °C 3.3 °C 1015.9 hPa WNW 22.5 km/h 37.0 km/h 46% 0.0 mm CLR
16:05 14.8 °C 3.6 °C 1015.9 hPa WNW 19.3 km/h 40.2 km/h 47% 0.0 mm CLR
16:10 14.8 °C 3.6 °C 1016.2 hPa WNW 19.3 km/h 40.2 km/h 47% 0.0 mm CLR
16:15 14.8 °C 3.6 °C 1016.2 hPa WNW 19.3 km/h 25.7 km/h 47% 0.0 mm CLR
16:20 14.8 °C 3.6 °C 1016.2 hPa WNW 19.3 km/h 30.6 km/h 47% 0.0 mm CLR
16:25 14.8 °C 3.6 °C 1016.2 hPa WNW 19.3 km/h 30.6 km/h 47% 0.0 mm CLR
16:30 14.9 °C 3.7 °C 1016.2 hPa WNW 19.3 km/h 29.0 km/h 47% 0.0 mm CLR
16:35 14.9 °C 3.7 °C 1016.2 hPa WNW 16.1 km/h 32.2 km/h 47% 0.0 mm CLR
16:40 14.9 °C 3.7 °C 1016.0 hPa WNW 16.1 km/h 22.5 km/h 47% 0.0 mm CLR
16:45 14.9 °C 3.7 °C 1016.0 hPa WNW 16.1 km/h 25.7 km/h 47% 0.0 mm CLR
16:50 14.9 °C 3.7 °C 1016.0 hPa WNW 16.1 km/h 24.1 km/h 47% 0.0 mm CLR
16:55 14.9 °C 3.7 °C 1016.0 hPa WNW 14.5 km/h 22.5 km/h 47% 0.0 mm CLR
17:00 14.9 °C 3.7 °C 1016.0 hPa WNW 14.5 km/h 20.9 km/h 47% 0.0 mm FEW
17:05 14.9 °C 3.7 °C 1016.0 hPa WNW 12.2 km/h 14.8 km/h 47% 0.0 mm CLR
17:10 14.9 °C 3.7 °C 1015.9 hPa WNW 12.9 km/h 19.3 km/h 47% 0.0 mm CLR
17:15 14.9 °C 3.7 °C 1015.9 hPa WNW 11.3 km/h 17.7 km/h 47% 0.0 mm CLR
17:20 14.9 °C 3.7 °C 1015.9 hPa WNW 11.3 km/h 16.1 km/h 47% 0.0 mm FEW
17:25 14.9 °C 3.7 °C 1015.7 hPa NW 10.3 km/h 14.8 km/h 47% 0.0 mm FEW
17:30 14.9 °C 3.7 °C 1015.7 hPa WNW 11.3 km/h 17.7 km/h 47% 0.0 mm FEW
17:35 14.9 °C 3.7 °C 1015.7 hPa WNW 11.3 km/h 16.1 km/h 47% 0.0 mm FEW
17:40 15.0 °C 3.4 °C 1015.8 hPa WNW 11.3 km/h 24.1 km/h 46% 0.0 mm FEW
17:45 15.1 °C 3.6 °C 1015.8 hPa West 11.3 km/h 14.5 km/h 46% 0.0 mm FEW
17:50 15.0 °C 3.4 °C 1015.8 hPa West 11.3 km/h 17.7 km/h 46% 0.0 mm CLR
17:55 14.9 °C 3.7 °C 1015.9 hPa WSW 8.0 km/h 11.3 km/h 47% 0.0 mm CLR
18:00 14.8 °C 3.9 °C 1015.9 hPa SW 8.0 km/h 9.7 km/h 48% 0.0 mm FEW
18:05 14.7 °C 3.8 °C 1015.9 hPa SW 4.8 km/h 6.4 km/h 48% 0.0 mm CLR
18:10 14.6 °C 3.7 °C 1015.8 hPa West 4.8 km/h 11.3 km/h 48% 0.0 mm CLR
18:15 14.6 °C 3.7 °C 1015.8 hPa West 4.8 km/h 11.3 km/h 48% 0.0 mm CLR
18:20 14.6 °C 3.7 °C 1015.8 hPa West 4.8 km/h 16.1 km/h 48% 0.0 mm FEW
18:25 14.5 °C 3.9 °C 1015.4 hPa West 8.0 km/h 9.7 km/h 49% 0.0 mm FEW
18:30 14.4 °C 3.8 °C 1015.4 hPa West 8.0 km/h 9.7 km/h 49% 0.0 mm FEW
18:35 14.4 °C 3.8 °C 1015.4 hPa WSW 4.8 km/h 11.3 km/h 49% 0.0 mm FEW
18:40 14.4 °C 3.8 °C 1015.0 hPa SW 4.8 km/h 8.0 km/h 49% 0.0 mm FEW
18:45 14.4 °C 3.8 °C 1015.0 hPa SW 4.8 km/h 8.0 km/h 49% 0.0 mm FEW
18:50 14.3 °C 4.0 °C 1015.0 hPa South 4.8 km/h 14.5 km/h 50% 0.0 mm FEW
18:55 14.1 °C 4.1 °C 1014.8 hPa South 8.0 km/h 12.9 km/h 51% 0.0 mm FEW
19:00 14.0 °C 4.3 °C 1014.8 hPa South 8.0 km/h 9.7 km/h 52% 0.0 mm FEW
19:05 13.8 °C 4.4 °C 1014.8 hPa South 8.0 km/h 11.3 km/h 53% 0.0 mm FEW
19:10 13.7 °C 4.6 °C 1014.6 hPa South 8.0 km/h 11.3 km/h 54% 0.0 mm FEW
19:15 13.6 °C 4.4 °C 1014.6 hPa South 8.0 km/h 11.3 km/h 54% 0.0 mm FEW
19:20 13.6 °C 4.4 °C 1014.6 hPa South 8.0 km/h 11.3 km/h 54% 0.0 mm CLR
19:25 13.6 °C 4.4 °C 1014.6 hPa South 8.0 km/h 11.3 km/h 54% 0.0 mm CLR
19:30 13.6 °C 4.4 °C 1014.6 hPa SSW 8.0 km/h 9.7 km/h 54% 0.0 mm CLR
19:35 13.7 °C 4.3 °C 1014.6 hPa SSW 8.0 km/h 9.7 km/h 53% 0.0 mm CLR
19:40 13.8 °C 4.4 °C 1014.4 hPa SW 8.0 km/h 9.7 km/h 53% 0.0 mm CLR
19:45 13.8 °C 4.1 °C 1014.4 hPa SSW 4.8 km/h 11.3 km/h 52% 0.0 mm CLR
19:50 13.9 °C 4.2 °C 1014.4 hPa SSW 4.8 km/h 12.9 km/h 52% 0.0 mm CLR
19:55 13.9 °C 3.9 °C 1014.0 hPa SSW 8.0 km/h 12.9 km/h 51% 0.0 mm CLR
20:00 13.9 °C 3.9 °C 1014.0 hPa SSW 8.0 km/h 17.7 km/h 51% 0.0 mm FEW
20:05 13.9 °C 3.6 °C 1014.0 hPa SSW 9.7 km/h 19.3 km/h 50% 0.0 mm CLR
20:10 13.9 °C 3.6 °C 1013.9 hPa SSW 9.7 km/h 20.9 km/h 50% 0.0 mm CLR
20:15 14.0 °C 3.7 °C 1013.9 hPa SW 11.3 km/h 22.5 km/h 50% 0.0 mm CLR
20:20 14.1 °C 3.8 °C 1013.9 hPa SW 11.3 km/h 20.9 km/h 50% 0.0 mm CLR
20:25 14.0 °C 4.0 °C 1014.0 hPa SW 11.3 km/h 19.3 km/h 51% 0.0 mm CLR
20:30 13.9 °C 3.9 °C 1014.0 hPa SW 11.3 km/h 20.9 km/h 51% 0.0 mm CLR
20:35 13.9 °C 3.9 °C 1014.0 hPa SW 11.3 km/h 20.9 km/h 51% 0.0 mm CLR
20:40 13.9 °C 3.9 °C 1014.0 hPa SW 11.3 km/h 22.5 km/h 51% 0.0 mm CLR
20:45 13.9 °C 4.2 °C 1014.0 hPa SW 11.3 km/h 16.1 km/h 52% 0.0 mm CLR
20:50 13.8 °C 4.1 °C 1014.0 hPa SW 11.3 km/h 16.1 km/h 52% 0.0 mm CLR
20:55 13.7 °C 4.3 °C 1013.7 hPa SSW 9.7 km/h 17.7 km/h 53% 0.0 mm CLR
21:00 13.7 °C 4.3 °C 1013.7 hPa SSW 9.7 km/h 11.3 km/h 53% 0.0 mm FEW
21:05 13.6 °C 4.2 °C 1013.7 hPa SSW 8.0 km/h 9.7 km/h 53% 0.0 mm CLR
21:10 13.5 °C 4.4 °C 1013.7 hPa SW 8.0 km/h 8.0 km/h 54% 0.0 mm CLR
21:15 13.5 °C 4.3 °C 1013.7 hPa SW 3.2 km/h 8.0 km/h 54% 0.0 mm CLR
21:20 13.4 °C 4.3 °C 1013.7 hPa WSW 3.2 km/h 9.7 km/h 54% 0.0 mm CLR
21:25 13.4 °C 4.6 °C 1013.5 hPa West 3.2 km/h 6.4 km/h 55% 0.0 mm CLR
21:30 13.3 °C 4.4 °C 1013.5 hPa WSW 3.2 km/h 4.8 km/h 55% 0.0 mm CLR
21:35 13.3 °C 4.4 °C 1013.5 hPa SSW 2.3 km/h 5.6 km/h 55% 0.0 mm CLR
21:40 13.3 °C 4.4 °C 1013.4 hPa SSW 1.6 km/h 8.0 km/h 55% 0.0 mm CLR
21:45 13.3 °C 4.4 °C 1013.4 hPa SSW 3.2 km/h 3.2 km/h 55% 0.0 mm CLR
21:50 13.2 °C 4.6 °C 1013.4 hPa SSW 3.2 km/h 4.8 km/h 56% 0.0 mm CLR
21:55 13.1 °C 4.5 °C 1013.6 hPa SSW 1.6 km/h 4.8 km/h 56% 0.0 mm CLR
22:00 13.1 °C 4.5 °C 1013.6 hPa SW 1.6 km/h 8.0 km/h 56% 0.0 mm FEW
22:05 13.1 °C 4.5 °C 1013.6 hPa WSW 3.2 km/h 8.0 km/h 56% 0.0 mm CLR
22:10 13.1 °C 4.5 °C 1013.8 hPa WSW 3.2 km/h 9.7 km/h 56% 0.0 mm CLR
22:15 13.1 °C 4.5 °C 1013.8 hPa WSW 3.2 km/h 8.0 km/h 56% 0.0 mm CLR
22:20 13.1 °C 4.8 °C 1013.8 hPa West 3.2 km/h 6.4 km/h 57% 0.0 mm CLR
22:25 12.9 °C 4.8 °C 1013.7 hPa NNW 3.2 km/h 6.4 km/h 58% 0.0 mm CLR
22:30 12.7 °C 4.8 °C 1013.7 hPa NNE 3.2 km/h 4.8 km/h 59% 0.0 mm CLR
22:35 12.5 °C 4.7 °C 1013.7 hPa NE 3.2 km/h 1.6 km/h 59% 0.0 mm CLR
22:40 12.4 °C 4.8 °C 1013.4 hPa NE 3.2 km/h   60% 0.0 mm CLR
22:45 12.4 °C 4.6 °C 1013.4 hPa Calm     59% 0.0 mm CLR
22:50 12.4 °C 4.6 °C 1013.4 hPa Calm   3.2 km/h 59% 0.0 mm CLR
22:55 12.4 °C 4.6 °C 1013.3 hPa Calm   4.8 km/h 59% 0.0 mm CLR
23:00 12.5 °C 4.7 °C 1013.3 hPa Calm   4.8 km/h 59% 0.0 mm FEW
23:05 12.6 °C 4.8 °C 1013.3 hPa ESE 3.2 km/h 6.4 km/h 59% 0.0 mm CLR
23:10 12.7 °C 5.1 °C 1012.7 hPa SSE 3.2 km/h 8.0 km/h 60% 0.0 mm CLR
23:15 12.6 °C 5.1 °C 1012.7 hPa SSE 3.2 km/h 4.8 km/h 60% 0.0 mm CLR
23:20 12.5 °C 5.2 °C 1012.7 hPa SE 3.2 km/h 8.0 km/h 61% 0.0 mm CLR
23:25 12.4 °C 5.1 °C 1012.6 hPa ESE 3.2 km/h 5.6 km/h 61% 0.0 mm CLR
23:30 12.2 °C 5.1 °C 1012.6 hPa ESE 3.2 km/h 6.4 km/h 62% 0.0 mm CLR
23:35 12.1 °C 5.1 °C 1012.6 hPa ESE 3.2 km/h 4.8 km/h 62% 0.0 mm CLR
23:40 12.1 °C 5.0 °C 1012.7 hPa ESE 3.2 km/h   62% 0.0 mm CLR
23:45 12.0 °C 4.9 °C 1012.7 hPa Calm   8.0 km/h 62% 0.0 mm CLR
23:50 12.0 °C 5.2 °C 1012.7 hPa Calm   8.0 km/h 63% 0.0 mm CLR
23:55 12.1 °C 5.3 °C 1012.3 hPa SSW 4.8 km/h 9.7 km/h 63% 0.0 mm CLR
Murcia-Puente Tocinos, España
Compliments of Weather Underground - 2.5 mb

La estación de MeteoMurcia.com, publica sus datos en los siguientes proyectos:

Weather Underground PWS IMURCIAP2 Meteoclimatic www.awekas.at

W3Counter
Web Analytics